Terug naar catalogus

STARLINK-32655

ActiefCommunicatieVLEO
NORAD 62202·PAYLOAD·🇺🇸 United States

Gelanceerd Dec 4, 2024 vanaf Cape Canaveral Space Force Station

Loading…

Volgende Passages (komende 24 uur)

TLE

VersSource: CelesTrak SupGP

Epoch: Sep 15, 2026, 03:16 UTC

1 62202C 24229L   26258.13659722 -.00002227  00000+0 -80661-4 0  2586
2 62202  42.9999 281.0672 0001369 269.8670  28.2498 15.27575802    15

Volg STARLINK-32655 in realtime met AllMySat

Download on the App Store